Location: Decatur Area Astronomy Club
(40.0275°N, 88.7810°W)
Time: 10:10:27
(UTC-05:00)

Daily predictions for brighter satellites

Satellite Brightness Start Highest point End
(mag) Time Altitude Azimuth Time Altitude Azimuth Time Altitude Azimuth
Timation 1 Rocket 4.4 18:56:18 10° NNW 19:02:18 83° ENE 19:08:17 10° SSE
NOSS 3-2 (A) 3.8 18:58:29 10° SW 19:04:32 72° NW 19:11:09 10° NNE
Meteor 1-28 Rocket 3.7 19:05:04 10° NNE 19:08:33 37° E 19:12:00 10° SSE
GPS 2-04 Rocket1 3.6 19:08:57 10° SW 19:11:58 29° SSE 19:15:04 10° ESE
NOAA 12 4.2 19:11:32 10° SSE 19:16:40 55° ENE 19:21:49 10° N
SAR-Lupe-1 4.1 19:14:26 10° SSE 19:17:54 57° ENE 19:21:25 10° N
Cosmos 1943 Rocket 4.1 19:16:49 10° NNE 19:18:41 12° NE 19:20:33 10° ENE
Cosmos 1452 Rocket 3.5 19:15:13 10° NNW 19:20:30 76° ENE 19:25:44 10° SSE
Cosmos 1743 Rocket 4.3 19:16:39 10° NNE 19:20:36 31° ENE 19:24:30 10° SE
Cosmos 1805 3.3 19:17:44 10° S 19:21:33 54° E 19:25:25 10° NNE
ALOS 3.5 19:20:54 10° ESE 19:24:31 23° ENE 19:28:09 10° NNE
Cosmos 2369 Rocket 3.2 19:22:09 10° N 19:26:58 28° NE 19:31:02 13° ESE
Cosmos 1943 3.9 19:23:21 10° SSE 19:28:08 29° ESE 19:32:56 10° NE
Resurs 01 Rocket 2.0 19:25:21 10° SE 19:29:33 42° ENE 19:33:46 10° N
SL-8 R/B 3.7 19:24:48 10° SW 19:29:36 84° SE 19:34:18 10° ENE
CENTAUR R/B 2.9 19:24:45 10° S 19:30:12 38° ESE 19:36:13 10° NE
Helios 1B rocket 2.9 19:26:32 10° NNE 19:30:24 38° E 19:34:14 10° SSE
Gbstr 26 Del rocket 3.6 19:27:50 10° SSW 19:31:53 43° SE 19:36:27 11° ENE
ISS -3.4 19:31:53 10° SW 19:35:08 80° SE 19:37:47 15° NE
Cosmos 1953 2.2 19:31:13 10° S 19:35:11 83° E 19:39:11 10° N
Cosmos 1603 3.7 19:29:30 10° SSW 19:35:14 81° ESE 19:41:01 10° NNE
Meteor 2-12 Rocket 4.4 19:30:55 10° S 19:37:01 70° E 19:43:09 10° NNE
Cosmos 468 4.5 19:32:47 10° SSW 19:38:02 85° ESE 19:43:17 10° NNE
COSMO-SKYMED 1 4.1 19:35:05 10° N 19:39:09 40° WNW 19:43:11 10° SW
Cosmos 1420 Rocket 4.0 19:34:22 10° NNW 19:39:39 63° ENE 19:44:54 10° SSE
Cosmos 1733 4.1 19:36:43 10° SSE 19:39:58 27° E 19:43:16 10° NNE
NOSS 3-2 (C) 4.4 19:39:08 10° WSW 19:45:02 49° NW 19:51:30 10° NNE
In-Cosmos 22 4.5 19:39:41 10° NNW 19:45:29 76° W 19:51:10 10° S
Cosmos 1470 3.1 19:43:26 10° SSE 19:47:05 40° E 19:50:44 10° NNE
Nadezhda 4 Rocket 3.9 19:42:01 10° N 19:48:16 66° E 19:54:24 10° SSE
Cosmos 1674 3.0 19:44:43 10° N 19:48:27 43° E 19:51:28 14° SSE
GP-B 4.0 19:48:52 10° NNE 19:52:35 26° E 19:52:56 25° E
Spot 2 Rocket 3.4 19:48:25 10° SSE 19:53:27 80° ENE 19:58:31 10° N
Abrixas 3.4 19:51:38 10° W 19:54:31 43° NNW 19:56:04 22° NE
Cosmos 1048 Rocket 3.9 19:52:32 10° SSW 19:57:50 83° ESE 20:03:05 10° NNE
Cosmos 1092 Rocket 4.0 19:52:10 10° N 19:58:16 57° E 20:04:17 10° SSE
Cosmos-2242 3.7 19:56:05 10° SSW 20:00:23 58° W 20:04:44 10° N
ATLAS 5 CENTAUR R/B 3.6 19:56:53 10° WSW 20:01:14 33° NW 20:05:57 10° NNE
Cosmos 2151 3.7 19:57:48 10° NNE 20:01:34 31° ENE 20:01:36 31° ENE
SJ-6B 4.3 19:59:21 10° SSW 20:03:06 39° W 20:06:57 10° NNW
Cosmos 1269 Rocket 4.2 19:58:08 10° SSW 20:03:24 75° WNW 20:08:42 10° NNE
HJ-1C 3.7 20:00:22 10° S 20:03:42 67° WSW 20:07:04 10° NNW
FREGAT/IRIS 4.3 20:02:11 10° SSW 20:05:03 35° W 20:07:55 10° NNW
Cosmos 1346 4.0 20:03:35 10° NNW 20:06:28 47° W 20:09:20 10° S
Cosmos 1544 3.9 20:04:49 10° SSW 20:08:28 53° W 20:12:08 10° N
Cosmos 2026 Rocket 4.4 20:03:31 10° N 20:09:11 38° ENE 20:11:21 29° ESE
Cosmos 1174 3.8 20:04:39 10° SSW 20:09:29 74° ESE 20:12:06 21° NE
Cosmos 158 Rocket 3.7 20:04:52 10° S 20:09:40 62° ESE 20:14:29 10° NNE
Meteor 1-16 Rocket 4.4 20:06:02 10° SSE 20:10:56 39° E 20:15:51 10° NNE
FengYun 1-2 T 4.2 20:08:09 10° SSE 20:13:40 88° WSW 20:19:11 10° NNW
Cosmos 1634 Rocket 4.0 20:07:40 10° S 20:13:47 59° E 20:19:52 10° NNE
USA 215 3.1 20:09:41 10° NE 20:16:15 77° SE 20:22:46 10° SW
CZ-4B DEB 2.8 20:22:26 77° NNW 20:22:26 77° NNW 20:25:29 10° NNW
OAO 3 Rocket 4.2 20:19:13 10° W 20:23:28 33° SSW 20:24:39 29° SSE
Meteor 1-11 4.5 20:18:32 10° N 20:24:07 48° ENE 20:25:15 42° ESE
Cosmos 1500 Rocket 3.9 20:24:30 10° NNW 20:28:55 64° W 20:32:53 13° S
Cosmos 1842 Rocket 4.1 20:24:59 10° SSW 20:29:14 59° W 20:33:34 10° N
Cosmos 2195 Rocket 4.4 20:25:16 10° N 20:31:36 67° E 20:34:50 30° SSE
ERS-1 Rocket 4.1 20:35:50 29° NE 20:35:50 29° NE 20:39:02 10° N
Helios 1A 4.4 20:32:23 10° SSW 20:36:17 37° W 20:40:13 10° NNW
FENGYUN 3A 3.8 20:32:29 15° S 20:36:56 74° WSW 20:42:21 10° NNW
CZ-2D R/B 3.5 20:41:51 65° WSW 20:41:59 65° W 20:45:52 10° NNW
Cosmos 1328 4.1 20:39:12 10° N 20:42:32 60° NNW 20:42:32 60° NNW
Cosmos 1110 Rocket 3.8 20:44:49 10° NNW 20:50:09 81° ENE 20:50:19 80° ESE
GPS 2-04 Rocket1 4.5 20:48:05 10° WSW 20:49:39 23° WSW 20:49:39 23° WSW
H-2A R/B 3.6 20:52:22 48° W 20:52:22 48° W 20:56:04 10° NNW
ALOS 3.7 20:58:47 18° SSW 21:01:44 35° W 21:06:02 10° NNW
Cosmos 1943 Rocket 2.3 20:57:53 10° NNW 21:02:44 62° NNE 21:02:44 62° NNE
Resurs 01 Rocket 4.4 21:03:19 10° SW 21:06:12 17° W 21:09:06 10° NW
Cosmos 2251 Rocket 3.7 21:02:17 10° SSW 21:07:28 66° WNW 21:12:42 10° NNE
Cosmos 2369 Rocket 3.2 21:05:49 10° NW 21:11:08 43° WSW 21:12:52 34° SSW
ISS -0.1 21:09:33 10° WNW 21:10:28 14° NW 21:10:28 14° NW
Gbstr 26 Del rocket 4.4 21:14:28 10° W 21:18:57 42° NNW 21:19:04 42° NNW
CENTAUR R/B 3.7 21:15:00 10° WSW 21:20:45 40° NW 21:27:14 10° NNE
USA 215 4.4 21:56:44 29° N 21:58:54 37° NNW 22:04:46 10° W
